Drummond Island, MI

9:43 PM EST on February 25, 2017 (GMT -0500)
Drummond Island

Weather History for KDRM - December, 2013

Change the Weather History Date:

Monday, December 9, 2013

  Actual Average (KCIU) Record (KCIU)
Temperature  
Mean Temperature 20 °F -  
Max Temperature 29 °F 30 °F 42 °F (2015)
Min Temperature 10 °F 12 °F -8 °F (1989)
Degree Days  
Heating Degree Days 46    
Moisture  
Dew Point 20 °F    
Average Humidity 87    
Maximum Humidity 96    
Minimum Humidity 63    
Precipitation  
Precipitation 0.00 in - - ()
Sea Level Pressure  
Sea Level Pressure 29.78 in    
Wind  
Wind Speed 5 mph (West)    
Max Wind Speed 17 mph    
Max Gust Speed 31 mph    
Visibility 3 miles    
Events Snow    
Averages and records for this station are not official NWS values.
T = Trace of Precipitation, MM = Missing Value Source: NWS Daily Summary

Daily Weather History Graph

Daily Weather History Graph

Search for Another Location

Airport or City:

Trip Planner

Search our weather history database for the weather conditions in past years. The results will help you decide how hot, cold, wet, or windy it might be!

Date:

Astronomy

Dec. 09, 2013 Rise Set
Actual Time 8:05 AM EST 4:49 PM EST
Civil Twilight 7:30 AM EST 5:23 PM EST
Nautical Twilight 6:53 AM EST 6:01 PM EST
Astronomical Twilight 6:16 AM EST 6:38 PM EST
Moon 12:38 PM EST (12/9) No Moon Set
Length of Visible Light 9h 53m
Length of Day
8h 44m
Waxing Crescent, 51% of the Moon is Illuminated
Dec 9
Waxing Crescent
Dec 17
Full
Dec 25
Last Quarter
Jan 1
New
Jan 7
First Quarter

Hourly Weather History & Observations

Time (EST) Temp. Windchill Dew Point Humidity Pressure Visibility Wind Dir Wind Speed Gust Speed Precip Events Conditions
12:17 AM 25.2 °F 20.9 °F 23.9 °F 95% 30.04 in 1.0 mi East 3.5 mph - N/A Snow Snow
12:38 AM 25.5 °F 21.3 °F 23.9 °F 94% 30.03 in 2.5 mi ESE 3.5 mph - N/A Snow Light Snow
12:57 AM 26.6 °F 18.2 °F 23.9 °F 90% 30.00 in 3.0 mi SE 8.1 mph - N/A Snow Light Snow
1:17 AM 25.9 °F - 23.9 °F 92% 29.98 in 2.5 mi Calm Calm - N/A Snow Light Snow
1:37 AM 25.5 °F 21.3 °F 23.7 °F 93% 29.96 in 2.5 mi East 3.5 mph - N/A Snow Light Snow
1:57 AM 25.5 °F 19.9 °F 23.7 °F 93% 29.95 in 1.8 mi East 4.6 mph - N/A Snow Light Snow
2:17 AM 25.5 °F 21.3 °F 23.7 °F 93% 29.94 in 1.8 mi East 3.5 mph - N/A Snow Light Snow
2:37 AM 25.5 °F - 23.9 °F 94% 29.93 in 1.8 mi Calm Calm - N/A Snow Light Snow
2:58 AM 25.7 °F 21.5 °F 23.9 °F 93% 29.92 in 1.8 mi East 3.5 mph - N/A Snow Light Snow
3:17 AM 25.7 °F - 24.4 °F 95% 29.91 in 1.5 mi Calm Calm - N/A Snow Light Snow
3:37 AM 25.7 °F - 24.6 °F 96% 29.90 in 1.2 mi Calm Calm - N/A Snow Light Snow
3:58 AM 25.7 °F 21.5 °F 24.4 °F 95% 29.87 in 1.8 mi NE 3.5 mph - N/A Snow Light Snow
4:17 AM 25.7 °F - 24.8 °F 96% 29.86 in 1.2 mi Calm Calm - N/A Snow Light Snow
4:37 AM 25.7 °F 21.5 °F 24.8 °F 96% 29.85 in 1.0 mi East 3.5 mph - N/A Snow Snow
4:58 AM 26.2 °F - 25.2 °F 96% 29.83 in 1.0 mi Calm Calm - N/A Snow Snow
5:17 AM 26.4 °F 22.4 °F 25.5 °F 96% 29.80 in 1.2 mi East 3.5 mph - N/A Snow Light Snow
5:37 AM 27.0 °F - 26.1 °F 96% 29.79 in 1.5 mi Calm Calm - N/A Snow Light Snow
5:58 AM 27.0 °F - 26.1 °F 96% 29.78 in 2.5 mi Calm Calm - N/A Snow Light Snow
6:17 AM 27.0 °F - 26.1 °F 96% 29.75 in 3.0 mi Calm Calm - N/A Snow Light Snow
6:38 AM 27.5 °F - 26.6 °F 96% 29.74 in 2.5 mi Calm Calm - N/A Snow Light Snow
6:57 AM 27.9 °F 24.0 °F 27.0 °F 96% 29.74 in 1.2 mi NE 3.5 mph - N/A Snow Light Snow
7:17 AM 27.9 °F 24.0 °F 26.6 °F 95% 29.72 in 1.8 mi ENE 3.5 mph - N/A Snow Light Snow
7:38 AM 27.9 °F 22.6 °F 26.6 °F 95% 29.70 in 1.0 mi NE 4.6 mph - N/A Snow Snow
7:57 AM 28.0 °F - 27.1 °F 96% 29.71 in 1.0 mi Calm Calm - N/A Snow Snow
8:17 AM 28.2 °F 24.4 °F 27.3 °F 96% 29.70 in 0.5 mi NE 3.5 mph - N/A Snow Snow
8:38 AM 28.0 °F - 27.0 °F 96% 29.70 in 0.2 mi Calm Calm - N/A Snow Snow
8:57 AM 27.9 °F 24.0 °F 27.0 °F 96% 29.70 in 0.8 mi NNE 3.5 mph - N/A Snow Light Snow
9:17 AM 28.4 °F - 27.1 °F 95% 29.69 in 0.5 mi Calm Calm - N/A Snow Snow
9:37 AM 28.8 °F - 26.8 °F 92% 29.69 in 2.5 mi Calm Calm - N/A Snow Light Snow
9:57 AM 28.9 °F 25.2 °F 26.6 °F 91% 29.68 in 3.0 mi NW 3.5 mph - N/A Snow Light Snow
10:18 AM 27.5 °F 21.1 °F 26.2 °F 95% 29.69 in 1.5 mi NNW 5.8 mph - N/A Snow Light Snow
10:37 AM 27.5 °F 23.6 °F 25.7 °F 93% 29.70 in 2.5 mi NNW 3.5 mph - N/A Snow Light Snow
10:57 AM 27.9 °F 22.6 °F 25.7 °F 92% 29.71 in 2.5 mi WNW 4.6 mph - N/A Snow Light Snow
11:18 AM 28.4 °F 22.2 °F 24.8 °F 86% 29.71 in 7.0 mi West 5.8 mph - N/A Snow Light Snow
11:37 AM 28.0 °F 24.2 °F 24.8 °F 88% 29.70 in 10.0 mi WSW 3.5 mph - N/A   Overcast
11:57 AM 29.3 °F 23.2 °F 25.7 °F 86% 29.69 in 10.0 mi WSW 5.8 mph - N/A Snow Light Snow
12:18 PM 29.7 °F 19.6 °F 25.7 °F 85% 29.69 in 7.0 mi WSW 12.7 mph 21.9 mph N/A   Overcast
12:37 PM 29.3 °F 17.3 °F 23.7 °F 80% 29.68 in 5.0 mi WSW 17.3 mph 24.2 mph N/A   Haze
12:57 PM 28.4 °F 18.0 °F 22.1 °F 77% 29.68 in 5.0 mi West 12.7 mph 31.1 mph N/A Snow Light Snow
1:18 PM 28.0 °F 18.6 °F 21.2 °F 76% 29.68 in 7.0 mi WSW 10.4 mph 21.9 mph N/A Snow Light Snow
1:37 PM 27.9 °F 20.6 °F 20.1 °F 73% 29.67 in 10.0 mi West 6.9 mph - N/A   Mostly Cloudy
1:57 PM 27.5 °F 16.8 °F 19.9 °F 73% 29.67 in 10.0 mi WSW 12.7 mph 17.3 mph N/A   Overcast
2:17 PM 27.7 °F 19.6 °F 20.3 °F 74% 29.66 in 10.0 mi WSW 8.1 mph - N/A   Overcast
2:37 PM 27.0 °F 20.5 °F 20.7 °F 77% 29.67 in 4.0 mi WSW 5.8 mph - N/A Snow Light Snow
2:58 PM 26.6 °F 18.2 °F 21.6 °F 81% 29.67 in 4.0 mi WSW 8.1 mph - N/A Snow Light Snow
3:17 PM 26.1 °F 18.4 °F 21.4 °F 82% 29.68 in 1.0 mi West 6.9 mph 17.3 mph N/A Snow Light Snow
3:38 PM 25.3 °F 19.7 °F 22.1 °F 87% 29.68 in 1.0 mi West 4.6 mph - N/A Snow Light Snow
3:57 PM 25.2 °F 20.9 °F 23.4 °F 93% 29.68 in 0.5 mi West 3.5 mph - N/A Snow Light Snow
4:17 PM 25.3 °F 15.3 °F 23.2 °F 91% 29.69 in 0.8 mi WSW 10.4 mph 18.4 mph N/A Snow Light Snow
4:38 PM 25.3 °F 15.3 °F 23.4 °F 92% 29.69 in 0.5 mi WSW 10.4 mph 20.7 mph N/A Snow Snow
4:57 PM 24.8 °F 15.3 °F 23.0 °F 93% 29.70 in 0.2 mi WSW 9.2 mph 27.6 mph N/A Snow Heavy Snow
5:17 PM 24.3 °F 16.3 °F 22.8 °F 94% 29.71 in 0.5 mi West 6.9 mph 23.0 mph N/A Snow Snow
5:38 PM 23.9 °F 15.0 °F 21.9 °F 92% 29.72 in 0.5 mi WSW 8.1 mph 28.8 mph N/A Snow Snow
5:57 PM 23.9 °F 11.2 °F 20.8 °F 88% 29.71 in 1.5 mi WSW 15.0 mph 23.0 mph N/A Snow Light Snow
6:17 PM 23.7 °F 13.3 °F 20.1 °F 86% 29.72 in 1.0 mi WSW 10.4 mph 25.3 mph N/A Snow Light Snow
6:38 PM 22.3 °F 13.0 °F 20.1 °F 91% 29.73 in 0.2 mi West 8.1 mph 31.1 mph N/A Snow Heavy Snow
6:57 PM 20.5 °F 6.9 °F 18.5 °F 92% 29.74 in 0.5 mi WNW 15.0 mph 23.0 mph N/A Snow Heavy Snow
7:17 PM 19.4 °F 10.4 °F 17.6 °F 93% 29.76 in 0.2 mi West 6.9 mph 16.1 mph N/A Snow Heavy Snow
7:37 PM 18.5 °F 6.8 °F 15.8 °F 89% 29.76 in 0.8 mi West 10.4 mph 20.7 mph N/A Snow Snow
7:57 PM 18.7 °F 5.7 °F 14.7 °F 85% 29.76 in 3.0 mi West 12.7 mph 19.6 mph N/A Snow Light Snow
8:17 PM 17.6 °F 4.3 °F 14.5 °F 88% 29.78 in 0.8 mi West 12.7 mph 21.9 mph N/A Snow Light Snow
8:37 PM 16.0 °F 4.4 °F 8.4 °F 72% 29.79 in 5.0 mi West 9.2 mph 17.3 mph N/A   Haze
8:58 PM 14.9 °F 1.6 °F 6.3 °F 69% 29.80 in 7.0 mi West 11.5 mph 20.7 mph N/A   Clear
9:17 PM 14.0 °F 2.9 °F 4.5 °F 66% 29.81 in 7.0 mi West 8.1 mph 20.7 mph N/A   Clear
9:37 PM 13.6 °F 2.5 °F 3.9 °F 65% 29.82 in 10.0 mi West 8.1 mph - N/A   Clear
9:58 PM 14.2 °F 1.4 °F 4.5 °F 65% 29.83 in 5.0 mi West 10.4 mph 19.6 mph N/A   Haze
10:17 PM 12.7 °F -0.4 °F 2.3 °F 63% 29.84 in 5.0 mi West 10.4 mph 21.9 mph N/A Snow Light Snow
10:37 PM 11.8 °F -1.5 °F 2.3 °F 66% 29.85 in 5.0 mi West 10.4 mph 24.2 mph N/A   Haze
10:58 PM 12.0 °F -0.4 °F 2.1 °F 65% 29.86 in 10.0 mi West 9.2 mph 19.6 mph N/A   Clear
11:17 PM 11.3 °F -1.3 °F 2.3 °F 67% 29.86 in 10.0 mi West 9.2 mph 19.6 mph N/A   Clear
11:37 PM 10.4 °F -3.3 °F 2.3 °F 70% 29.87 in 10.0 mi West 10.4 mph 17.3 mph N/A   Clear
11:58 PM 10.0 °F -1.9 °F 2.3 °F 71% 29.88 in 10.0 mi West 8.1 mph - N/A   Clear